sat.trackr.live / text

‹ back to catalog

UNKNOWN

NORAD 82875

UNKNOWN UNKNOWN UNKNOWN

§ Identity

Operator
Country
Launch date
Launch site
Launch vehicle
Mass (kg)
RCS (m²)

External: N2YO · Heavens-Above

§ Orbital elements

Epoch: 2026-05-22T05:43:37.700256Z

Period
101.74 min
Inclination
98.6930°
Eccentricity
0.0376956
Mean motion
14.15430515 rev/d
Perigee alt
568.7 km
Apogee alt
1,113.0 km
Semi-major
7,219.0 km
B*
6.7648e-5
RAAN
126.8516°
Arg perigee
182.4211°
Mean anomaly
177.5150°
Rev number
56,717

§ Raw data

UNKNOWN1 82875U          26142.23863079  .00000209  00000+0  67648-4 0  99982 82875  98.6930 126.8516 0376956 182.4211 177.5150 14.15430515567172

JSON: /api/v1/satellites/82875 · /tle

For live sub-satellite position, see the globe view (requires WebGL).

§ Visibility from observer

Set your observer location to see the next 7 days of passes ≥ 10°. The values pass through the URL so the page stays shareable.

No JS? Fill the form by hand. The geolocation button needs JavaScript.